Tracking 29489 objects as of 9-Sep-2024
HD Live streaming from Space Station
objects crossing your sky now

LINGQIAO VIDEO A

Track LINGQIAO VIDEO A now!
10-day predictions


NORAD ID: 40959
Int'l Code: 2015-057B
Perigee: 639.2 km
Apogee: 662.7 km
Inclination: 97.7 °
Period: 97.6 minutes
Semi major axis: 7021 km
RCS: Unknown
Launch date: October 7, 2015
Source: People's Republic of China (PRC)
Launch site: Jiuquan Satellite Launch Center, China (JSC)

LINGQIAO VIDEO A is a Chinese satellite designed for video capture.
Your satellite tracking list
Your tracking list is empty




NASA's NSSDC Master Catalog

Two Line Element Set (TLE):
1 40959U 15057B   24253.17375442  .00003446  00000-0  51306-3 0  9999
2 40959  97.6652 270.1191 0016784 202.8461 157.2004 14.75424362480070
Source of the keplerian elements: AFSPC